[Iaude] MPEC M57: TWO NEW TNOS

mpec at cfa.harvard.edu mpec at cfa.harvard.edu
Wed Jun 26 21:20:34 EDT 2024


M.P.E.C. 2024-M57                                 Issued 2024 June 27, 01:18 UT

     The Minor Planet Electronic Circulars contain information on unusual
         minor planets, routine data on comets and natural satellites,
         and occasional editorial announcements.  They are published
    on behalf of Division F of the International Astronomical Union by the
          Minor Planet Center, Smithsonian Astrophysical Observatory,
                          Cambridge, MA 02138, U.S.A.
			  
             Prepared using the Tamkin Foundation Computer Network

                              MPC at CFA.HARVARD.EDU
            URL https://www.minorplanetcenter.net/    ISSN 1523-6714

                                  TWO NEW TNOS                                  


Observations:
     K17BO1A 1C2017 01 02.52724210 03 09.57 +01 10 18.2                WEM057T09
     K17BO1A*4C2017 01 21.41782 10 01 59.37 +01 14 19.3          24.8 z1EM057T09
     K17BO1A 4C2017 01 21.44099 10 01 59.28 +01 14 19.7          24.2 z1EM057T09
     K17BO1A 4C2017 01 21.45826 10 01 59.21 +01 14 20.3          24.5 z1EM057T09
     K17BO1A 4C2017 01 21.48580 10 01 59.10 +01 14 20.7          24.6 z1EM057T09
     K17BO1A 4C2017 01 21.51187 10 01 58.98 +01 14 21.2          24.7 z1EM057T09
     K17BO1A 4C2017 01 21.56003 10 01 58.79 +01 14 22.2          24.9 z1EM057T09
     K17BO1A 4C2017 01 21.60289 10 01 58.56 +01 14 23.3          25.5 z1EM057T09
     K17BO1A 4C2017 01 23.36273 10 01 50.92 +01 14 56.1          25.6 r1EM057T09
     K17BO1A 4C2017 01 23.39642 10 01 50.80 +01 14 56.9          26.2 r1EM057T09
     K17BO1A 4C2017 01 23.41024 10 01 50.75 +01 14 56.9          25.3 r1EM057T09
     K17BO1A 4C2017 01 23.52068 10 01 50.25 +01 14 59.1          25.7 i1EM057T09
     K17BO1A 4C2017 01 23.59193 10 01 49.94 +01 15 00.4          25.1 i1EM057T09
     K17BO1A 1C2017 01 30.41707510 01 18.93 +01 17 26.6                WEM057T09
     K17BO1A 1C2017 01 30.46125310 01 18.71 +01 17 27.6                WEM057T09
     K17BO1A 1C2017 02 25.43122709 59 11.52 +01 29 44.8                WEM057T09
     K17BO1A 1C2017 03 04.45599509 58 37.64 +01 33 37.9                WEM057T09
     K17BO1A 1C2017 03 04.49950609 58 37.43 +01 33 39.6                WEM057T09
     K17BO1A 1C2017 03 23.25212609 57 16.16 +01 44 22.9                WEM057T09
     K17BO1A 1C2017 03 23.27389909 57 16.08 +01 44 23.6                WEM057T09
     K17BO1A 1C2018 01 17.46121010 09 11.64 +00 56 32.2                WEM057T09
     K17BO1A 1C2018 01 17.59900010 09 11.09 +00 56 34.4                WEM057T09
     K17BO1A 1C2019 01 04.48083710 16 50.60 +00 37 24.1                WEM057T09
     K17BO1A 1C2019 01 11.50372510 16 28.51 +00 38 30.3                WEM057T09
     K17BO1A 1C2019 04 05.36956410 10 20.76 +01 18 23.4                WEM057T09
     K17BO1B 1C2016 11 25.62229009 58 27.37 +01 38 50.6                WEM057T09
     K17BO1B 1C2016 11 25.63406209 58 27.36 +01 38 50.5                WEM057T09
     K17BO1B 1C2016 11 25.63791309 58 27.37 +01 38 50.6                WEM057T09
     K17BO1B 1C2016 12 23.47229409 57 59.18 +01 35 46.9                WEM057T09
     K17BO1B 4C2017 01 21.43628 09 56 29.15 +01 40 01.2          25.5 z1EM057T09
     K17BO1B 4C2017 01 21.48215 09 56 28.95 +01 40 01.8          25.2 z1EM057T09
     K17BO1B 4C2017 01 21.50822 09 56 28.84 +01 40 02.2          24.8 z1EM057T09
     K17BO1B 4C2017 01 21.53429 09 56 28.75 +01 40 02.7          25.3 z1EM057T09
     K17BO1B 4C2017 01 21.55646 09 56 28.66 +01 40 03.2          25.5 z1EM057T09
     K17BO1B 4C2017 01 23.36023 09 56 21.58 +01 40 33.1          26.1 r1EM057T09
     K17BO1B*4C2017 01 23.37134 09 56 21.51 +01 40 32.9          25.7 r1EM057T09
     K17BO1B 4C2017 01 23.39391 09 56 21.45 +01 40 33.8          26.2 r1EM057T09
     K17BO1B 4C2017 01 23.41253 09 56 21.33 +01 40 33.8          25.8 r1EM057T09
     K17BO1B 4C2017 01 23.43372 09 56 21.27 +01 40 34.3          25.4 r1EM057T09
     K17BO1B 4C2017 01 23.51704 09 56 20.93 +01 40 35.8          25.7 i1EM057T09
     K17BO1B 4C2017 01 23.52381 09 56 20.90 +01 40 35.8          25.6 i1EM057T09
     K17BO1B 4C2017 01 23.53190 09 56 20.88 +01 40 36.0          25.0 i1EM057T09
     K17BO1B 4C2017 01 23.55808 09 56 20.78 +01 40 36.5          25.5 i1EM057T09
     K17BO1B 4C2017 01 23.58838 09 56 20.66 +01 40 36.6          25.3 i1EM057T09
     K17BO1B 1C2017 02 02.56861109 55 39.33 +01 43 49.0                WEM057T09
     K17BO1B 1C2017 02 02.58799209 55 39.24 +01 43 49.5                WEM057T09
     K17BO1B 1C2019 04 04.29020610 01 23.44 +01 45 31.4                WEM057T09
     K17BO1B 1C2019 04 04.33233310 01 23.32 +01 45 32.5                WEM057T09
     K17BO1B 1C2019 04 04.34000010 01 23.29 +01 45 32.7                WEM057T09
     K17BO1B 1C2019 05 09.23809310 00 29.45 +01 58 59.5                WEM057T09
     K17BO1B 1C2019 05 09.38598910 00 29.42 +01 59 02.1                WEM057T09

Observer details:
T09 Subaru Telescope, Maunakea.  Observers , H. Aihara, Y. AlSayyad, M. Ando,
    R. Armstrong, J. Bosch, E. Egami, H. Furusawa, J. Furusawa, S. Harasawa,
    Y. Harikane, B.-C. Hsieh, H. Ikeda, K. Ito, I. Iwata, T. Kodama, M. Koike,
    M. Kokubo, Y. Komiyama, X. Li, Y. Liang, Y.-T. Lin, R. H. Lupton, N. B.
    Lust, L. A. MacArthur, K. Mawatari, S. Mineo, H. Miyatake, S. Miyazaki, S.
    More, T. Morishima, H. Murayama, K. Nakajima, F. Nakata, A. J. Nishizawa,
    M. Oguri, N. Okabe, Y. Okura, Y. Ono, K. Osato, M. Ouchi, Y.-C. Pan, A. A.
    Plazas Malagon, P. A. Price, S. L. Reed, E. S. Rykoff, T. Shibuya, M.
    Simunovic, M. A. Strauss, K. Sugimori, Y. Suto, N. Suzuki, M. Takada, Y.
    Takagi, T. Takata, S. Takita, M. Tanaka, S. Tang, D. S. Taranu, T. Terai,
    Y. Toba, E. L. Turner, H. Uchiyama, B. Vijarnwannaluk, C. Z. Waters, Y.
    Yamada, N. Yamamoto, T. Yamashita.  Measurers S. Deen, H. Fukuyama, A.
    Yamauchi.  8.3-m Subaru Telescope + CCD, 8.2-m f/2.0 reflector + CCD(HSC).

Orbital elements:
2017 BA241                                                                      
Epoch 2024 Mar. 31.0 TT = JDT 2460400.5                 Alexandersen            
M   3.98118              (2000.0)            P               Q                  
n   0.00298025     Peri.  324.70833     -0.91221089     -0.40630730             
a  47.8227565      Node   191.67653     +0.40950425     -0.89994263             
e   0.2119347      Incl.   15.11668     +0.01332503     -0.15816969             
P 331              H    9.58          G   0.15           U   6                  
Residuals in seconds of arc
K1712  T09  0.0   0.1+    K171N  T09  0.0   0.1+    K173N  T09  0.1-  0.0  
K171L  T09  0.3-  0.1-    K171N  T09  0.2+  0.2-    K173N  T09  0.0   0.1- 
K171L  T09  0.1-  0.1-    K171N  T09  0.1+  0.2-    K181H  T09  0.1-  0.0  
K171L  T09  0.0   0.1+    K171N  T09  0.2+  0.3-    K181H  T09  0.1+  0.1+ 
K171L  T09  0.1+  0.0     K171U  T09  0.2+  0.1+    K1914  T09  0.0   0.0  
K171L  T09  0.0   0.1+    K171U  T09  0.0   0.1+    K191B  T09  0.0   0.0  
K171L  T09  0.4+  0.2+    K172P  T09  0.0   0.1-    K1945  T09  0.0   0.0  
K171L  T09  0.3-  0.5+    K1734  T09  0.0   0.1-    
K171N  T09  0.5-  0.1-    K1734  T09  0.0   0.1+    

2017 BB241                                                                      
Epoch 2024 Mar. 31.0 TT = JDT 2460400.5                 Alexandersen            
M 206.98476              (2000.0)            P               Q                  
n   0.00351652     Peri.  118.49212     +0.66862156     +0.74120977             
a  42.8279326      Node   193.97664     -0.73885314     +0.65316673             
e   0.0327709      Incl.   14.28842     -0.08391210     +0.15485900             
P 280              H    9.31          G   0.15           U   7                  
Residuals in seconds of arc
K16BP  T09  0.1+  0.2-    K171N  T09  0.1+  0.1+    K171N  T09  0.1+  0.3- 
K16BP  T09  0.1-  0.1-    K171N  T09  0.3-  0.3-    K1722  T09  0.1+  0.0  
K16BP  T09  0.0   0.0     K171N  T09  0.2+  0.3+    K1722  T09  0.0   0.1+ 
K16CN  T09  0.0   0.0     K171N  T09  0.5-  0.1-    K1944  T09  0.0   0.1+ 
K171L  T09  0.3+  0.1+    K171N  T09  0.1-  0.1+    K1944  T09  0.1+  0.0  
K171L  T09  0.0   0.0     K171N  T09  0.1-  0.1+    K1944  T09  0.1-  0.0  
K171L  T09  0.1-  0.1-    K171N  T09  0.2-  0.0     K1959  T09  0.0   0.1- 
K171L  T09  0.1+  0.0     K171N  T09  0.0   0.1+    K1959  T09  0.0   0.1+ 
K171L  T09  0.1+  0.2+    K171N  T09  0.1+  0.2+    


M. P. C. Staff               (C) Copyright 2024 MPC           M.P.E.C. 2024-M57





More information about the Iaude mailing list